Location: Oakley
(37.9974°N, 121.7125°W)
Time: 23:56:18
(UTC+00:00)

Cosmos 1025 Rocket - Pass Details

Date: 13 February 2026
Orbit: 587 x 609 km, 82.5° (Epoch: 9 March)

Event Time Altitude Azimuth Distance (km) Brightness Sun altitude
Rises 13:58:48 0° 342° (NNW) 2,876 6.2 -12.4°
Reaches altitude 10° 14:01:11 10° 333° (NNW) 1,966 5.3 -12.0°
Maximum altitude 14:05:05 33° 269° (W) 1,032 3.7 -11.2°
Drops below altitude 10° 14:08:56 10° 206° (SSW) 1,945 5.4 -10.4°
Sets 14:11:17 0° 196° (SSW) 2,840 6.4 -10.0°
